device_id;received_at;battery_voltage;frame_counter;humidity;precipitation;pressure;supply_voltage;temperature;wind_direction_avg;wind_speed_avg;wind_speed_max;wind_speed_min;Quelle
eui-8cf95720000d344d-sn24020756;2024-03-24T00:10:32.630638536Z;3,63;249;7,239;0;0;4,2999;965;358;4,2999;83;1,0999;Stadt Konstanz - Programm Smart Green City
eui-8cf95720000d344d-sn24020756;2024-03-24T00:25:32.410201092Z;3,63;250;7,25;0;0;4,6;964,8;19;4,6;79,89;2,3999;Stadt Konstanz - Programm Smart Green City
eui-8cf95720000d344d-sn24020756;2024-03-24T00:40:32.189995527Z;3,63;251;7,25;0;0;4,5;964,3;339;4,5;80,2;3;Stadt Konstanz - Programm Smart Green City
eui-8cf95720000d344d-sn24020756;2024-03-24T00:55:31.970195367Z;3,63;252;7,26;0;0;4,5;964,2;0;4,5;80,29;3;Stadt Konstanz - Programm Smart Green City
eui-8cf95720000d344d-sn24020756;2024-03-24T01:10:31.754092782Z;3,63;253;7,26;0;0;4,2999;964,2;334;4,2999;84,79;1,4;Stadt Konstanz - Programm Smart Green City
eui-8cf95720000d344d-sn24020756;2024-03-24T01:25:31.532136940Z;3,63;254;7,3;0;0;4,1;964;351;4,1;84,6;1,6;Stadt Konstanz - Programm Smart Green City
eui-8cf95720000d344d-sn24020756;2024-03-24T01:40:31.300661514Z;3,63;255;7,339;0;0;3,9;963,8;345;3,9;87,1;2;Stadt Konstanz - Programm Smart Green City
eui-8cf95720000d344d-sn24020756;2024-03-24T01:55:31.071819816Z;3,63;0;7,479;0;0;3,7;963,7;4;3,7;88;2,1;Stadt Konstanz - Programm Smart Green City
eui-8cf95720000d344d-sn24020756;2024-03-24T02:10:30.873495198Z;3,63;1;7,479;0;0;3,7;963,5;70;3,7;88,79;0,4;Stadt Konstanz - Programm Smart Green City
eui-8cf95720000d344d-sn24020756;2024-03-24T02:25:30.650944084Z;3,63;2;7,5;0;0;3,8;963,5;15;3,8;88,79;1,7;Stadt Konstanz - Programm Smart Green City
eui-8cf95720000d344d-sn24020756;2024-03-24T02:40:30.431882446Z;3,63;3;7,5;0;0;3,8;963,4;18;3,8;89,39;2,6999;Stadt Konstanz - Programm Smart Green City
eui-8cf95720000d344d-sn24020756;2024-03-24T02:55:30.259703886Z;3,63;4;7,54;0;0;3,8;963,3;326;3,8;88;1,8;Stadt Konstanz - Programm Smart Green City
eui-8cf95720000d344d-sn24020756;2024-03-24T03:10:30.025695324Z;3,63;5;7,64;0;0;3,6;963,3;15;3,6;89,29;2,6;Stadt Konstanz - Programm Smart Green City
eui-8cf95720000d344d-sn24020756;2024-03-24T03:25:29.794065889Z;3,63;6;7,67;0;0;3,4;963,2;44;3,4;88,39;0,7;Stadt Konstanz - Programm Smart Green City
eui-8cf95720000d344d-sn24020756;2024-03-24T03:40:29.561332890Z;3,63;7;7,679;0;0;3,1999;963,3;355;3,1999;89,5;4,5;Stadt Konstanz - Programm Smart Green City
eui-8cf95720000d344d-sn24020756;2024-03-24T03:55:29.356474177Z;3,63;8;7,77;0;0;3;963,3;356;3;90,89;3,1;Stadt Konstanz - Programm Smart Green City
eui-8cf95720000d344d-sn24020756;2024-03-24T04:10:29.130201587Z;3,63;9;7,79;0;0;2,8;963,3;355;2,8;91,39;3,1999;Stadt Konstanz - Programm Smart Green City
eui-8cf95720000d344d-sn24020756;2024-03-24T04:25:28.908869195Z;3,63;10;7,79;0;0;2,8999;963;42;2,8999;91,2;1,8;Stadt Konstanz - Programm Smart Green City
eui-8cf95720000d344d-sn24020756;2024-03-24T04:40:28.700436664Z;3,63;11;7,79;0;0;3;962,9;351;3;89,79;3;Stadt Konstanz - Programm Smart Green City
eui-8cf95720000d344d-sn24020756;2024-03-24T05:10:28.264330692Z;3,63;13;7,79;0;0;3,1;963,1;12;3,1;89,39;2;Stadt Konstanz - Programm Smart Green City
eui-8cf95720000d344d-sn24020756;2024-03-24T05:25:28.049578588Z;3,63;14;7,79;0;0;3,1;963,1;355;3,1;89,7;2,3;Stadt Konstanz - Programm Smart Green City
eui-8cf95720000d344d-sn24020756;2024-03-24T05:40:27.823021825Z;3,63;15;7,79;0;0;3,3;963,2;2;3,3;89,6;1,6;Stadt Konstanz - Programm Smart Green City
eui-8cf95720000d344d-sn24020756;2024-03-24T06:10:27.396173011Z;3,63;17;7,79;0;0;3,5;963,1;345;3,5;88,5;3,8;Stadt Konstanz - Programm Smart Green City
eui-8cf95720000d344d-sn24020756;2024-03-24T06:25:27.151919341Z;3,63;18;7,79;0;0;3,6;963,2;344;3,6;88,2;2,6999;Stadt Konstanz - Programm Smart Green City
eui-8cf95720000d344d-sn24020756;2024-03-24T06:40:26.926122112Z;3,63;19;7,8;0;0;3,5;963,4;6;3,5;87,89;2,3;Stadt Konstanz - Programm Smart Green City
eui-8cf95720000d344d-sn24020756;2024-03-24T06:55:26.731287561Z;3,63;20;7,8;0;0;3,6;963,7;345;3,6;87,2;3,8;Stadt Konstanz - Programm Smart Green City
eui-8cf95720000d344d-sn24020756;2024-03-24T07:10:26.511948965Z;3,63;21;7,8;0;0;4,1;963,9;337;4,1;84,5;3,5;Stadt Konstanz - Programm Smart Green City
eui-8cf95720000d344d-sn24020756;2024-03-24T07:40:26.073264358Z;3,63;23;7,8;0;0;4,7;964,2;337;4,7;80,79;2,6;Stadt Konstanz - Programm Smart Green City
eui-8cf95720000d344d-sn24020756;2024-03-24T07:55:25.853443874Z;3,63;24;7,8;0;0;4,8999;964,3;0;4,8999;76,7;3;Stadt Konstanz - Programm Smart Green City
eui-8cf95720000d344d-sn24020756;2024-03-24T08:10:25.608595721Z;3,63;25;7,8;0;0;4,8999;964,5;352;4,8999;76,89;4;Stadt Konstanz - Programm Smart Green City
eui-8cf95720000d344d-sn24020756;2024-03-24T08:25:25.412843904Z;3,63;26;7,8;0;0;5;964,6;357;5;75,29;3,1;Stadt Konstanz - Programm Smart Green City
eui-8cf95720000d344d-sn24020756;2024-03-24T08:40:25.189205373Z;3,63;27;7,8;0;0;5,6;964,6;346;5,6;71,1;9,2;Stadt Konstanz - Programm Smart Green City
eui-8cf95720000d344d-sn24020756;2024-03-24T08:55:24.947601862Z;3,63;28;7,8;0;0;6,2;964,6;339;6,2;70,2;3,1999;Stadt Konstanz - Programm Smart Green City
eui-8cf95720000d344d-sn24020756;2024-03-24T09:10:24.729569496Z;3,63;29;7,8;0;0;6,8;964,6;328;6,8;62,3;4,5;Stadt Konstanz - Programm Smart Green City
eui-8cf95720000d344d-sn24020756;2024-03-24T09:25:24.527974622Z;3,63;30;7,8;0;0;6,6;964,5;4;6,6;62,2;3,5;Stadt Konstanz - Programm Smart Green City
eui-8cf95720000d344d-sn24020756;2024-03-24T09:40:24.291665832Z;3,63;31;7,8;0;0;6,5;964,5;341;6,5;58,2;5,7999;Stadt Konstanz - Programm Smart Green City
eui-8cf95720000d344d-sn24020756;2024-03-24T09:55:24.069337276Z;3,63;32;7,8;0;0;6,7;964,6;3;6,7;56,8;3,1999;Stadt Konstanz - Programm Smart Green City
eui-8cf95720000d344d-sn24020756;2024-03-24T10:10:23.845452298Z;3,63;33;7,8;0;0;7,2;964,7;340;7,2;54,9;3,5;Stadt Konstanz - Programm Smart Green City
eui-8cf95720000d344d-sn24020756;2024-03-24T10:25:23.636404078Z;3,63;34;7,8;0;0;7,3;964,6;2;7,3;50,6;3,4;Stadt Konstanz - Programm Smart Green City
eui-8cf95720000d344d-sn24020756;2024-03-24T10:40:23.411247200Z;3,63;35;7,8;0;0;7,1;964,6;347;7,1;52,6;4,5;Stadt Konstanz - Programm Smart Green City
eui-8cf95720000d344d-sn24020756;2024-03-24T10:55:23.191574983Z;3,63;36;7,8;0;0;7,3;964,6;348;7,3;54;5,2;Stadt Konstanz - Programm Smart Green City
eui-8cf95720000d344d-sn24020756;2024-03-24T11:10:22.970842554Z;3,63;37;7,8;0;0;7;964,6;345;7;56,3;4;Stadt Konstanz - Programm Smart Green City
eui-8cf95720000d344d-sn24020756;2024-03-24T11:25:22.731420005Z;3,63;38;7,8;0;0;6,7;964,6;332;6,7;59,3;3,6;Stadt Konstanz - Programm Smart Green City
eui-8cf95720000d344d-sn24020756;2024-03-24T11:40:22.521427126Z;3,63;39;7,8;0;0;7,6;964,3;14;7,6;56,6;5,2;Stadt Konstanz - Programm Smart Green City
eui-8cf95720000d344d-sn24020756;2024-03-24T11:55:22.275148662Z;3,63;40;7,8;0;0;7,9;964,5;348;7,9;54,2;3,5;Stadt Konstanz - Programm Smart Green City
eui-8cf95720000d344d-sn24020756;2024-03-24T12:10:22.088581789Z;3,63;41;7,8;0;0;7,9;964,3;352;7,9;54,1;4,6;Stadt Konstanz - Programm Smart Green City
eui-8cf95720000d344d-sn24020756;2024-03-24T12:25:21.850017049Z;3,63;42;7,8;0;0;7,6;964,2;318;7,6;51;2,5;Stadt Konstanz - Programm Smart Green City
eui-8cf95720000d344d-sn24020756;2024-03-24T12:40:21.621584555Z;3,63;43;7,8;0;0;7,6;964;347;7,6;52;5;Stadt Konstanz - Programm Smart Green City
eui-8cf95720000d344d-sn24020756;2024-03-24T12:55:21.411358785Z;3,63;44;7,8;0;0;7,8;963,8;339;7,8;47,899;5,2999;Stadt Konstanz - Programm Smart Green City
eui-8cf95720000d344d-sn24020756;2024-03-24T13:10:21.170016570Z;3,63;45;7,8;0;0;8;963,7;344;8;50,1;3,9;Stadt Konstanz - Programm Smart Green City
eui-8cf95720000d344d-sn24020756;2024-03-24T13:25:20.985128815Z;3,63;46;7,8;0;0;8;963,7;6;8;47,899;2,3999;Stadt Konstanz - Programm Smart Green City
eui-8cf95720000d344d-sn24020756;2024-03-24T13:40:20.722956559Z;3,63;47;7,8;0;0;8;963,5;346;8;47;7,5;Stadt Konstanz - Programm Smart Green City
eui-8cf95720000d344d-sn24020756;2024-03-24T13:55:20.512753766Z;3,63;48;7,8;0;0;8,4;963,3;339;8,4;46,399;6,9;Stadt Konstanz - Programm Smart Green City
eui-8cf95720000d344d-sn24020756;2024-03-24T14:10:20.281752183Z;3,63;49;7,8;0;0;8,5;963,3;341;8,5;44,699;3,9;Stadt Konstanz - Programm Smart Green City
eui-8cf95720000d344d-sn24020756;2024-03-24T14:25:20.053250580Z;3,63;50;7,8;0;0;8;963,1;328;8;55;2;Stadt Konstanz - Programm Smart Green City
eui-8cf95720000d344d-sn24020756;2024-03-24T14:40:19.821495419Z;3,63;51;7,8;0;0;8,299;963,2;349;8,299;51,8;4,7999;Stadt Konstanz - Programm Smart Green City
eui-8cf95720000d344d-sn24020756;2024-03-24T14:55:19.623712051Z;3,63;52;7,8;0;0;8,599;963,3;339;8,599;46,3;6,1;Stadt Konstanz - Programm Smart Green City
eui-8cf95720000d344d-sn24020756;2024-03-24T15:10:19.385493790Z;3,63;53;7,8;0;0;8,4;963,1;8;8,4;48,199;3,1999;Stadt Konstanz - Programm Smart Green City
eui-8cf95720000d344d-sn24020756;2024-03-24T15:40:18.952065439Z;3,63;55;7,8;0;0;8,299;963,1;342;8,299;49,399;3,9;Stadt Konstanz - Programm Smart Green City
eui-8cf95720000d344d-sn24020756;2024-03-24T15:55:18.719278155Z;3,63;56;7,8;0;0;8,4;963,1;341;8,4;47,699;2,5;Stadt Konstanz - Programm Smart Green City
eui-8cf95720000d344d-sn24020756;2024-03-24T16:10:18.508636691Z;3,63;57;7,8;0;0;8,799;963,1;342;8,799;46,6;2,6;Stadt Konstanz - Programm Smart Green City
eui-8cf95720000d344d-sn24020756;2024-03-24T16:25:18.291480759Z;3,63;58;7,8;0;0;9;963;354;9;46,199;2,5;Stadt Konstanz - Programm Smart Green City
eui-8cf95720000d344d-sn24020756;2024-03-24T16:40:18.057700258Z;3,63;59;7,8;0;0;8,7;962,9;345;8,7;44,899;5,1;Stadt Konstanz - Programm Smart Green City
eui-8cf95720000d344d-sn24020756;2024-03-24T16:55:17.836001120Z;3,63;60;7,8;0;0;8,4;962,9;342;8,4;47,199;5,5;Stadt Konstanz - Programm Smart Green City
eui-8cf95720000d344d-sn24020756;2024-03-24T17:10:17.603044900Z;3,63;61;7,8;0;0;8,099;963,1;336;8,099;47,899;2,6999;Stadt Konstanz - Programm Smart Green City
eui-8cf95720000d344d-sn24020756;2024-03-24T17:25:17.382947637Z;3,63;62;7,8;0;0;7,6;963,1;10;7,6;53,5;2,8999;Stadt Konstanz - Programm Smart Green City
eui-8cf95720000d344d-sn24020756;2024-03-24T17:40:17.155373628Z;3,63;63;7,8;0;0;7,3;963,2;4;7,3;55,2;1,3;Stadt Konstanz - Programm Smart Green City
eui-8cf95720000d344d-sn24020756;2024-03-24T17:55:16.935898900Z;3,63;64;7,8;0;0;7;963,3;352;7;56,1;2,5;Stadt Konstanz - Programm Smart Green City
eui-8cf95720000d344d-sn24020756;2024-03-24T18:10:16.707791532Z;3,63;65;7,8;0;0;6,8;963,5;341;6,8;57,5;3,6;Stadt Konstanz - Programm Smart Green City
eui-8cf95720000d344d-sn24020756;2024-03-24T18:40:16.277170487Z;3,63;67;7,8;0;0;6,8;963,8;0;6,8;58,3;5,1;Stadt Konstanz - Programm Smart Green City
eui-8cf95720000d344d-sn24020756;2024-03-24T18:55:16.058581729Z;3,63;68;7,8;0;0;6,6;963,9;349;6,6;59,6;1,9;Stadt Konstanz - Programm Smart Green City
eui-8cf95720000d344d-sn24020756;2024-03-24T19:10:15.836606750Z;3,63;69;7,8;0;0;6,6;964,1;3;6,6;59,7;1,3;Stadt Konstanz - Programm Smart Green City
eui-8cf95720000d344d-sn24020756;2024-03-24T19:25:15.617888094Z;3,63;70;7,8;0;0;6,5;964,1;272;6,5;61;0,4;Stadt Konstanz - Programm Smart Green City
eui-8cf95720000d344d-sn24020756;2024-03-24T19:40:15.385314997Z;3,63;71;7,8;0;0;6,5;964,1;8;6,5;60,6;1;Stadt Konstanz - Programm Smart Green City
eui-8cf95720000d344d-sn24020756;2024-03-24T19:55:15.182564628Z;3,63;72;7,91;0;0;6,3999;964,3;5;6,3999;64,399;3,3;Stadt Konstanz - Programm Smart Green City
eui-8cf95720000d344d-sn24020756;2024-03-24T20:10:14.939334079Z;3,63;73;7,979;0;0;6,3999;964,3;357;6,3999;64,299;4,1;Stadt Konstanz - Programm Smart Green City
eui-8cf95720000d344d-sn24020756;2024-03-24T20:25:14.717042279Z;3,63;74;7,979;0;0;5,8999;964,3;0;5,8999;69,2;2;Stadt Konstanz - Programm Smart Green City
eui-8cf95720000d344d-sn24020756;2024-03-24T20:55:14.299296048Z;3,63;76;7,979;0;0;5,7999;964,3;341;5,7999;70,39;2,3;Stadt Konstanz - Programm Smart Green City
eui-8cf95720000d344d-sn24020756;2024-03-24T21:10:14.069780849Z;3,63;77;7,979;0;0;5,7;964,2;332;5,7;69,6;0,8;Stadt Konstanz - Programm Smart Green City
eui-8cf95720000d344d-sn24020756;2024-03-24T21:25:13.855290150Z;3,63;78;7,979;0;0;5,7999;964,2;335;5,7999;69,5;1,5;Stadt Konstanz - Programm Smart Green City
eui-8cf95720000d344d-sn24020756;2024-03-24T21:40:13.635837573Z;3,63;79;8,049;0;0;5,3999;964,4;344;5,3999;72,6;3;Stadt Konstanz - Programm Smart Green City
eui-8cf95720000d344d-sn24020756;2024-03-24T21:55:13.400435378Z;3,63;80;8,08;0;0;4,7999;964,5;351;4,7999;78,1;3,6;Stadt Konstanz - Programm Smart Green City
eui-8cf95720000d344d-sn24020756;2024-03-24T22:10:13.176148819Z;3,63;81;8,08;0;0;4,5;964,6;347;4,5;81,79;2;Stadt Konstanz - Programm Smart Green City
eui-8cf95720000d344d-sn24020756;2024-03-24T22:25:12.973675885Z;3,63;82;8,08;0;0;4,2;964,5;0;4,2;82,39;2;Stadt Konstanz - Programm Smart Green City
eui-8cf95720000d344d-sn24020756;2024-03-24T22:55:12.512420788Z;3,63;84;8,08;0;0;3,9;964,4;21;3,9;84,7;2,6;Stadt Konstanz - Programm Smart Green City
eui-8cf95720000d344d-sn24020756;2024-03-24T23:10:12.290322056Z;3,63;85;8,08;0;0;3,5;964,4;355;3,5;87,2;2,1999;Stadt Konstanz - Programm Smart Green City
eui-8cf95720000d344d-sn24020756;2024-03-24T23:25:12.074399355Z;3,63;86;8,08;0;0;3,5;964,3;341;3,5;86,7;1,7;Stadt Konstanz - Programm Smart Green City
eui-8cf95720000d344d-sn24020756;2024-03-24T23:40:11.852393115Z;3,63;87;8,08;0;0;3,6;964,3;335;3,6;86,2;1,0999;Stadt Konstanz - Programm Smart Green City
eui-8cf95720000d344d-sn24020756;2024-03-24T23:55:11.655166962Z;3,63;88;8,08;0;0;3,6;964,3;33;3,6;86,5;1,7;Stadt Konstanz - Programm Smart Green City
eui-8cf95720000d344d-sn24020756;2024-03-25T00:10:11.406124430Z;3,63;89;8,08;0;0;3,7;964,3;308;3,7;86;0,7;Stadt Konstanz - Programm Smart Green City
eui-8cf95720000d344d-sn24020756;2024-03-25T00:25:11.217878740Z;3,63;90;8,08;0;0;3,7;964,3;335;3,7;87,1;1,3;Stadt Konstanz - Programm Smart Green City
eui-8cf95720000d344d-sn24020756;2024-03-25T00:40:10.971773769Z;3,63;91;8,08;0;0;3,7;964,3;340;3,7;86,29;2,3;Stadt Konstanz - Programm Smart Green City
eui-8cf95720000d344d-sn24020756;2024-03-25T00:55:10.750895663Z;3,63;92;8,08;0;0;3,6;964,2;306;3,6;86,7;0,7;Stadt Konstanz - Programm Smart Green City
eui-8cf95720000d344d-sn24020756;2024-03-25T01:10:10.553901671Z;3,63;93;8,08;0;0;3,8;964,1;281;3,8;86,29;0,9;Stadt Konstanz - Programm Smart Green City
eui-8cf95720000d344d-sn24020756;2024-03-25T01:25:10.305183894Z;3,63;94;8,08;0;0;4;964;348;4;84,6;0,2;Stadt Konstanz - Programm Smart Green City
eui-8cf95720000d344d-sn24020756;2024-03-25T01:40:10.114382080Z;3,63;95;8,08;0;0;3,9;963,9;348;3,9;84,5;0,5;Stadt Konstanz - Programm Smart Green City
eui-8cf95720000d344d-sn24020756;2024-03-25T01:55:09.892881368Z;3,63;96;8,08;0;0;3,8;963,8;321;3,8;85,5;1;Stadt Konstanz - Programm Smart Green City
eui-8cf95720000d344d-sn24020756;2024-03-25T02:10:09.664080605Z;3,63;97;8,08;0;0;3,7;963,8;6;3,7;84,6;1,8;Stadt Konstanz - Programm Smart Green City
eui-8cf95720000d344d-sn24020756;2024-03-25T02:25:09.447576364Z;3,63;98;8,08;0;0;3,5;963,7;317;3,5;85;1;Stadt Konstanz - Programm Smart Green City
eui-8cf95720000d344d-sn24020756;2024-03-25T02:40:09.276263197Z;3,63;99;8,08;0;0;3,5;963,7;351;3,5;84,39;2,1999;Stadt Konstanz - Programm Smart Green City
eui-8cf95720000d344d-sn24020756;2024-03-25T02:55:09.013618334Z;3,63;100;8,08;0;0;3,3;963,5;334;3,3;85,29;1,3;Stadt Konstanz - Programm Smart Green City
eui-8cf95720000d344d-sn24020756;2024-03-25T03:10:08.795219204Z;3,63;101;8,08;0;0;3,4;963,5;356;3,4;84,79;1,4;Stadt Konstanz - Programm Smart Green City
eui-8cf95720000d344d-sn24020756;2024-03-25T03:25:08.569868787Z;3,63;102;8,08;0;0;3,1999;963,5;356;3,1999;86,39;0,9;Stadt Konstanz - Programm Smart Green City
eui-8cf95720000d344d-sn24020756;2024-03-25T03:40:08.353377986Z;3,63;103;8,08;0;0;3;963,5;96;3;87,6;0,3;Stadt Konstanz - Programm Smart Green City
eui-8cf95720000d344d-sn24020756;2024-03-25T03:55:08.154756359Z;3,63;104;8,08;0;0;3;963,4;177;3;87,89;0,1;Stadt Konstanz - Programm Smart Green City
eui-8cf95720000d344d-sn24020756;2024-03-25T04:10:07.933991485Z;3,63;105;8,08;0;0;3,1999;963,3;352;3,1999;85,89;1,6;Stadt Konstanz - Programm Smart Green City
eui-8cf95720000d344d-sn24020756;2024-03-25T04:25:07.691779847Z;3,63;106;8,08;0;0;3,1;963,3;5;3,1;86,39;0,5;Stadt Konstanz - Programm Smart Green City
eui-8cf95720000d344d-sn24020756;2024-03-25T04:40:07.512724963Z;3,63;107;8,08;0;0;3,1999;963,3;339;3,1999;86,89;1;Stadt Konstanz - Programm Smart Green City
eui-8cf95720000d344d-sn24020756;2024-03-25T04:55:07.273753297Z;3,63;108;8,08;0;0;3,1999;963,3;10;3,1999;86,6;0,6;Stadt Konstanz - Programm Smart Green City
eui-8cf95720000d344d-sn24020756;2024-03-25T05:10:07.054950110Z;3,63;109;8,08;0;0;3;963,3;167;3;86,79;0,2;Stadt Konstanz - Programm Smart Green City
eui-8cf95720000d344d-sn24020756;2024-03-25T05:25:06.838489776Z;3,63;110;8,08;0;0;3;963,2;177;3;88,39;1,3;Stadt Konstanz - Programm Smart Green City
eui-8cf95720000d344d-sn24020756;2024-03-25T05:40:06.615568490Z;3,63;111;8,08;0;0;2,6;963,3;133;2,6;89,79;0,4;Stadt Konstanz - Programm Smart Green City
eui-8cf95720000d344d-sn24020756;2024-03-25T05:55:06.386696580Z;3,63;112;8,08;0;0;2,8999;963,3;168;2,8999;89,1;0,4;Stadt Konstanz - Programm Smart Green City
eui-8cf95720000d344d-sn24020756;2024-03-25T06:10:06.177026704Z;3,63;113;8,08;0;0;3,1;963,2;179;3,1;86,89;0,5;Stadt Konstanz - Programm Smart Green City
eui-8cf95720000d344d-sn24020756;2024-03-25T06:25:05.942903884Z;3,63;114;8,08;0;0;3,1999;963,1;171;3,1999;86,29;0,7;Stadt Konstanz - Programm Smart Green City
eui-8cf95720000d344d-sn24020756;2024-03-25T06:40:05.734896562Z;3,63;115;8,08;0;0;3,5;963,2;97;3,5;85;0,3;Stadt Konstanz - Programm Smart Green City
eui-8cf95720000d344d-sn24020756;2024-03-25T06:55:05.507734720Z;3,63;116;8,08;0;0;4;963,1;102;4;82,5;0,5;Stadt Konstanz - Programm Smart Green City
eui-8cf95720000d344d-sn24020756;2024-03-25T07:10:05.295477678Z;3,63;117;8,08;0;0;4,6;963;170;4,6;81;1;Stadt Konstanz - Programm Smart Green City
eui-8cf95720000d344d-sn24020756;2024-03-25T07:25:05.066765876Z;3,63;118;8,08;0;0;4,7;962,9;151;4,7;80,79;0,8;Stadt Konstanz - Programm Smart Green City
eui-8cf95720000d344d-sn24020756;2024-03-25T07:55:04.635618738Z;3,63;120;8,08;0;0;4,7;962,7;198;4,7;81;2;Stadt Konstanz - Programm Smart Green City
eui-8cf95720000d344d-sn24020756;2024-03-25T08:10:04.439657219Z;3,63;121;8,08;0;0;5,5;962,5;276;5,5;76,2;0,9;Stadt Konstanz - Programm Smart Green City
eui-8cf95720000d344d-sn24020756;2024-03-25T08:25:04.197827186Z;3,63;122;8,08;0;0;5,6;962,2;200;5,6;74,79;1,8;Stadt Konstanz - Programm Smart Green City
eui-8cf95720000d344d-sn24020756;2024-03-25T08:40:03.975881910Z;3,63;123;8,08;0;0;6,5;962,1;186;6,5;68,2;0,5;Stadt Konstanz - Programm Smart Green City
eui-8cf95720000d344d-sn24020756;2024-03-25T08:55:03.758156009Z;3,63;124;8,08;0;0;6,2999;961,8;156;6,2999;68,6;0,7;Stadt Konstanz - Programm Smart Green City
eui-8cf95720000d344d-sn24020756;2024-03-25T09:10:03.539076667Z;3,63;125;8,08;0;0;6,7;961,8;120;6,7;65;1,5;Stadt Konstanz - Programm Smart Green City
eui-8cf95720000d344d-sn24020756;2024-03-25T09:25:03.308552832Z;3,63;126;8,08;0;0;6,6;961,7;133;6,6;63,8;1,3;Stadt Konstanz - Programm Smart Green City
eui-8cf95720000d344d-sn24020756;2024-03-25T09:40:03.077395547Z;3,63;127;8,08;0;0;7,3;961,4;140;7,3;62,7;1,7;Stadt Konstanz - Programm Smart Green City
eui-8cf95720000d344d-sn24020756;2024-03-25T09:55:02.850894237Z;3,63;128;8,08;0;0;7,2;961,2;163;7,2;65,299;1,1999;Stadt Konstanz - Programm Smart Green City
eui-8cf95720000d344d-sn24020756;2024-03-25T10:10:02.621345247Z;3,63;129;8,08;0;0;7,2;961,2;132;7,2;65,299;1,0999;Stadt Konstanz - Programm Smart Green City
eui-8cf95720000d344d-sn24020756;2024-03-25T10:25:02.412374317Z;3,63;130;8,08;0;0;7,3;960,7;125;7,3;65,6;1,1999;Stadt Konstanz - Programm Smart Green City
eui-8cf95720000d344d-sn24020756;2024-03-25T10:40:02.216694872Z;3,63;131;8,089;0;0;7,8;960,4;166;7,8;63,4;1,1999;Stadt Konstanz - Programm Smart Green City
eui-8cf95720000d344d-sn24020756;2024-03-25T10:55:01.981251348Z;3,63;132;8,089;0;0;7,8;960,3;191;7,8;62,8;1,9;Stadt Konstanz - Programm Smart Green City
eui-8cf95720000d344d-sn24020756;2024-03-25T11:40:01.305952447Z;3,63;135;8,089;0;0;8,4;959,2;116;8,4;57,8;1,4;Stadt Konstanz - Programm Smart Green City
eui-8cf95720000d344d-sn24020756;2024-03-25T11:55:01.076012656Z;3,63;136;8,089;0;0;8,7;958,9;163;8,7;57;1,4;Stadt Konstanz - Programm Smart Green City
eui-8cf95720000d344d-sn24020756;2024-03-25T12:10:00.905727545Z;3,63;137;8,089;0;0;9,299;958,7;206;9,299;48,699;1;Stadt Konstanz - Programm Smart Green City
eui-8cf95720000d344d-sn24020756;2024-03-25T12:25:00.640658090Z;3,63;138;8,089;0;0;9,4;958,3;172;9,4;53,7;1,0999;Stadt Konstanz - Programm Smart Green City
eui-8cf95720000d344d-sn24020756;2024-03-25T12:40:00.399757341Z;3,63;139;8,089;0;0;9,099;957,9;199;9,099;51,6;1,6;Stadt Konstanz - Programm Smart Green City
eui-8cf95720000d344d-sn24020756;2024-03-25T12:55:00.161707437Z;3,63;140;8,089;0;0;9,599;957,8;177;9,599;47,5;2;Stadt Konstanz - Programm Smart Green City
eui-8cf95720000d344d-sn24020756;2024-03-25T13:09:59.967440548Z;3,63;141;8,089;0;0;9,799;957,4;177;9,799;45,1;1,1999;Stadt Konstanz - Programm Smart Green City
eui-8cf95720000d344d-sn24020756;2024-03-25T13:24:59.764843387Z;3,63;142;8,089;0;0;10,099;957;190;10,099;43,8;1,8;Stadt Konstanz - Programm Smart Green City
eui-8cf95720000d344d-sn24020756;2024-03-25T13:39:59.517523454Z;3,63;143;8,089;0;0;10,099;956,7;159;10,099;41,6;1,5;Stadt Konstanz - Programm Smart Green City
eui-8cf95720000d344d-sn24020756;2024-03-25T13:54:59.280390764Z;3,63;144;8,089;0;0;10,5;956,5;119;10,5;39;1,6;Stadt Konstanz - Programm Smart Green City
eui-8cf95720000d344d-sn24020756;2024-03-25T14:09:59.037729794Z;3,63;145;8,089;0;0;10,9;956,2;189;10,9;36,5;1,6;Stadt Konstanz - Programm Smart Green City
eui-8cf95720000d344d-sn24020756;2024-03-25T14:24:58.819791566Z;3,63;146;8,089;0;0;11,7;955,8;129;11,7;33,1;1,5;Stadt Konstanz - Programm Smart Green City
eui-8cf95720000d344d-sn24020756;2024-03-25T14:39:58.641149429Z;3,63;147;8,089;0;0;10,9;955,6;122;10,9;34,699;0,3;Stadt Konstanz - Programm Smart Green City
eui-8cf95720000d344d-sn24020756;2024-03-25T14:54:58.364097035Z;3,63;148;8,089;0;0;11;955,2;162;11;35,5;0,6;Stadt Konstanz - Programm Smart Green City
eui-8cf95720000d344d-sn24020756;2024-03-25T15:09:58.193601647Z;3,63;149;8,089;0;0;11,299;955;180;11,299;35,3;2;Stadt Konstanz - Programm Smart Green City
eui-8cf95720000d344d-sn24020756;2024-03-25T15:24:57.924581644Z;3,63;150;8,089;0;0;11,299;954,9;209;11,299;35,3;0,9;Stadt Konstanz - Programm Smart Green City
eui-8cf95720000d344d-sn24020756;2024-03-25T15:39:57.713796003Z;3,63;151;8,089;0;0;11,299;954,8;210;11,299;35,399;1,7;Stadt Konstanz - Programm Smart Green City
eui-8cf95720000d344d-sn24020756;2024-03-25T15:54:57.488882701Z;3,63;152;8,089;0;0;11,4;954,3;193;11,4;33,899;1,0999;Stadt Konstanz - Programm Smart Green City
eui-8cf95720000d344d-sn24020756;2024-03-25T16:09:57.275569473Z;3,63;153;8,089;0;0;11,4;954,2;196;11,4;33,8;1,0999;Stadt Konstanz - Programm Smart Green City
eui-8cf95720000d344d-sn24020756;2024-03-25T16:24:57.055534982Z;3,63;154;8,089;0;0;11,4;954;179;11,4;33,6;1,6;Stadt Konstanz - Programm Smart Green City
eui-8cf95720000d344d-sn24020756;2024-03-25T16:39:56.814525961Z;3,63;155;8,089;0;0;11,4;953,8;190;11,4;34,1;1;Stadt Konstanz - Programm Smart Green City
eui-8cf95720000d344d-sn24020756;2024-03-25T16:54:56.585544308Z;3,63;156;8,089;0;0;11,299;953,6;200;11,299;33,699;0,5;Stadt Konstanz - Programm Smart Green City
eui-8cf95720000d344d-sn24020756;2024-03-25T17:09:56.374640402Z;3,63;157;8,089;0;0;11,299;953,6;211;11,299;33,699;0,8;Stadt Konstanz - Programm Smart Green City
eui-8cf95720000d344d-sn24020756;2024-03-25T17:24:56.126605733Z;3,63;158;8,089;0;0;11,2;953,5;189;11,2;36,1;1,0999;Stadt Konstanz - Programm Smart Green City